This is the latest recevied weather packets stored in our database for station/object KC1BRV. If no packets are shown the sender has not sent any weather packets the latest 10 day(s).
| Time | Temp. | Humidity | Pressure | Rain* | Wind** | Luminosity | Snow |
|---|---|---|---|---|---|---|---|
| 1777805611 | 5.56° C | 67% | 1008.3 hPa | 0 mm | - | 25 W/m² | - |
| 1777805309 | 5° C | 69% | 1008.4 hPa | 0 mm | - | 27 W/m² | - |
| 1777805007 | 5° C | 68% | 1008.4 hPa | 0 mm | - | 24 W/m² | - |
| 1777804704 | 5° C | 67% | 1008.3 hPa | 0 mm | - | 19 W/m² | - |
| 1777804402 | 5° C | 68% | 1008.4 hPa | 0 mm | - | 15 W/m² | - |
| 1777804099 | 5.56° C | 66% | 1008.3 hPa | 0 mm | - | 15 W/m² | - |
| 1777803795 | 5.56° C | 66% | 1008.1 hPa | 0 mm | - | 18 W/m² | - |
| 1777803491 | 5.56° C | 66% | 1008.2 hPa | 0 mm | - | 17 W/m² | - |
| 1777803189 | 5.56° C | 66% | 1008.2 hPa | 0 mm | - | 14 W/m² | - |
| 1777802886 | 5.56° C | 65% | 1008.1 hPa | 0 mm | - | 12 W/m² | - |
| 1777802584 | 5.56° C | 66% | 1008 hPa | 0 mm | - | 9 W/m² | - |
| 1777802281 | 5.56° C | 65% | 1008.2 hPa | 0 mm | - | 6 W/m² | - |
| 1777801979 | 5.56° C | 64% | 1008.2 hPa | 0 mm | - | 4 W/m² | - |
| 1777801675 | 5.56° C | 64% | 1008.4 hPa | 0 mm | - | 3 W/m² | - |
| 1777801374 | 5.56° C | 64% | 1008.3 hPa | 0 mm | - | 2 W/m² | - |
| 1777801069 | 6.11° C | 64% | 1008 hPa | 0 mm | - | 1 W/m² | - |
| 1777800767 | 6.11° C | 64% | 1008.3 hPa | 0 mm | - | 0 W/m² | - |
| 1777800462 | 6.11° C | 63% | 1008.4 hPa | 0 mm | - | 0 W/m² | - |
| 1777800159 | 6.11° C | 64% | 1008.2 hPa | 0 mm | - | 0 W/m² | - |
| 1777799853 | 6.11° C | 63% | 1008.3 hPa | 0 mm | - | 0 W/m² | - |
| 1777799552 | 6.11° C | 63% | 1008.3 hPa | 0 mm | - | 0 W/m² | - |
| 1777799247 | 6.11° C | 64% | 1008.3 hPa | 0 mm | - | 0 W/m² | - |
| 1777798943 | 6.11° C | 65% | 1008.3 hPa | 0 mm | - | 0 W/m² | - |
| 1777798639 | 6.11° C | 65% | 1008.4 hPa | 0 mm | - | 0 W/m² | - |
| 1777798336 | 6.11° C | 64% | 1008.4 hPa | 0 mm | - | 0 W/m² | - |
* Rain latest hour (hover to see other rain measurements)
** Current wind speed in m/s (hover to see current wind gust speed)